[Date Prev][Date Next][Thread Prev][Thread Next] - [Date Index][Thread Index][Author Index]
2 Line ISS Keps 5-2
- Subject: [sarex] 2 Line ISS Keps 5-2
- From: "Dave Larsen PhD" <doc@xxxxxxxxxxx>
- Date: Sun, 2 May 2004 03:22:41 -0700
ISS
1 25544U 98067A 04123.22971655 .00022776 00000-0 19644-3 0 6883
2 25544 51.6289 199.9913 0011146 91.9859 10.7449 15.69089256311100
----
Via the sarex mailing list at AMSAT.ORG courtesy of AMSAT-NA.
To unsubscribe, send "unsubscribe sarex" to Majordomo@amsat.org
AMSAT Home